period_start,C,m1,H,J0,J1,J2,J3,J4,J5,JA,JB,JC,JD,JJ,JK,JN,#
2013-09-15 00:00:01,0.02,0.10,0.00,25.73,27.82,30.34,5.91,30.54,1019.99,2048.98,3409.13,3335.04,3613.99,350.32,322.36,26.22,0000 0000 0000 0000 000000
2013-09-15 00:01:01,0.00,0.10,0.00,25.75,27.82,30.33,6.02,30.50,1019.98,2048.99,3409.16,3335.03,3613.99,349.88,321.94,26.23,0000 0000 0000 0000 000000
2013-09-15 00:02:01,0.01,0.10,0.00,25.76,27.82,30.34,5.91,30.46,1019.99,2048.99,3409.17,3335.03,3613.99,350.01,322.00,26.23,0000 0000 0000 0000 000000
2013-09-15 00:03:01,0.00,0.10,0.00,25.77,27.82,30.33,5.83,30.50,1019.96,2048.98,3409.13,3335.01,3613.99,349.93,321.84,26.24,0000 0000 0000 0000 000000
2013-09-15 00:04:02,0.00,0.10,0.00,25.75,27.82,30.36,5.69,30.38,1019.84,2048.98,3409.17,3335.00,3613.99,349.21,321.28,26.25,0000 0000 0000 0000 000000
2013-09-15 00:05:02,0.00,0.10,0.00,25.77,27.82,30.37,5.97,30.58,1019.79,2048.99,3409.14,3335.01,3613.99,350.01,322.33,26.25,0000 0000 0000 0000 000000
2013-09-15 00:06:02,0.01,0.10,0.00,25.74,27.82,30.38,5.83,30.50,1019.89,2048.99,3409.10,3335.00,3613.99,349.63,321.68,26.26,0000 0000 0000 0000 000000
2013-09-15 00:07:02,0.00,0.10,0.00,25.74,27.82,30.35,5.96,30.50,1019.75,2048.99,3409.26,3335.01,3613.99,349.97,322.15,26.26,0000 0000 0000 0000 000000
2013-09-15 00:08:02,-0.03,0.10,0.00,25.72,27.82,30.32,5.97,30.33,1019.82,2048.99,3409.41,3335.03,3613.99,349.79,321.83,26.27,0000 0000 0000 0000 000000
2013-09-15 00:09:03,-0.02,0.10,0.00,25.75,27.82,30.29,5.96,30.33,1019.77,2048.99,3409.24,3335.02,3613.99,349.76,322.01,26.27,0000 0000 0000 0000 000000
2013-09-15 00:10:03,0.04,0.10,0.00,25.75,27.82,30.29,5.79,30.46,1019.80,2048.99,3409.12,3335.01,3613.99,349.77,321.77,26.28,0000 0000 0000 0000 000000
2013-09-15 00:11:03,0.01,0.10,0.00,25.75,27.82,30.37,5.91,30.42,1019.75,2048.99,3409.10,3335.02,3613.99,350.13,322.18,26.29,0000 0000 0000 0000 000000
2013-09-15 00:12:03,0.00,0.10,0.00,25.74,27.82,30.37,5.92,30.46,1019.78,2048.99,3409.07,3335.00,3613.99,350.28,322.07,26.29,0000 0000 0000 0000 000000
2013-09-15 00:13:03,0.01,0.10,0.00,25.75,27.82,30.33,5.94,30.08,1019.78,2048.99,3409.05,3335.00,3613.99,349.49,321.57,26.30,0000 0000 0000 0000 000000
2013-09-15 00:14:04,0.00,0.10,0.00,25.74,27.82,30.36,5.97,30.46,1019.83,2048.99,3409.07,3335.01,3613.99,349.65,321.69,26.30,0000 0000 0000 0000 000000
2013-09-15 00:15:04,0.00,0.10,0.00,25.74,27.82,30.36,5.98,30.54,1019.87,2048.99,3409.08,3335.00,3613.99,349.79,321.83,26.31,0000 0000 0000 0000 000000
2013-09-15 00:16:04,0.00,0.10,0.00,25.73,27.82,30.33,6.13,30.42,1019.94,2048.99,3409.07,3335.01,3613.99,350.48,322.11,26.32,0000 0000 0000 0000 000000
2013-09-15 00:17:04,0.00,0.10,0.00,25.72,27.82,30.31,5.94,30.50,1019.96,2048.99,3409.05,3335.00,3613.99,350.06,322.12,26.32,0000 0000 0000 0000 000000
2013-09-15 00:18:05,0.00,0.10,0.00,25.72,27.82,30.30,6.03,30.50,1019.95,2048.99,3409.04,3335.00,3613.99,350.57,322.60,26.33,0000 0000 0000 0000 000000
2013-09-15 00:19:05,-0.00,0.10,0.00,25.71,27.82,30.31,5.89,30.46,1019.93,2048.99,3409.05,3335.02,3613.99,349.93,322.45,26.33,0000 0000 0000 0000 000000
2013-09-15 00:20:05,-0.01,0.10,0.00,25.72,27.82,30.32,5.91,30.50,1019.98,2048.99,3409.18,3335.02,3613.99,350.09,322.61,26.34,0000 0000 0000 0000 000000
2013-09-15 00:21:05,-0.01,0.10,0.00,25.74,27.82,30.34,6.00,30.46,1019.91,2048.99,3409.18,3335.06,3613.99,350.05,322.08,26.34,0000 0000 0000 0000 000000
2013-09-15 00:22:06,0.00,0.10,0.00,25.72,27.82,30.34,5.82,30.54,1019.92,2048.99,3409.15,3335.04,3613.99,349.45,321.98,26.35,0000 0000 0000 0000 000000
2013-09-15 00:23:06,0.00,0.10,0.00,25.72,27.82,30.33,6.14,30.42,1019.93,2048.99,3409.09,3335.02,3613.99,351.15,323.13,26.36,0000 0000 0000 0000 000000
2013-09-15 00:24:06,0.01,0.10,0.00,25.72,27.81,30.34,6.03,30.46,1019.87,2048.99,3409.06,3335.01,3613.99,350.75,322.97,26.36,0000 0000 0000 0000 000000
2013-09-15 00:25:06,0.00,0.10,0.00,25.75,27.81,30.33,6.01,30.67,1019.84,2048.99,3409.09,3335.03,3613.98,349.14,320.69,26.37,0000 0000 0000 0000 000000
2013-09-15 00:26:07,0.00,0.10,0.00,25.72,27.81,30.35,5.98,30.50,1019.83,2048.99,3409.15,3335.01,3613.99,350.38,322.26,26.37,0000 0000 0000 0000 000000
2013-09-15 00:27:07,-0.00,0.10,0.00,25.72,27.81,30.32,6.11,30.46,1019.75,2048.99,3409.24,3335.04,3613.99,350.26,322.76,26.38,0000 0000 0000 0000 000000
2013-09-15 00:28:07,-0.01,0.10,0.00,25.72,27.80,30.33,5.98,30.50,1019.73,2048.99,3409.26,3335.07,3613.99,350.27,322.09,26.39,0000 0000 0000 0000 000000
2013-09-15 00:29:07,-0.00,0.10,0.00,25.71,27.80,30.34,5.79,30.46,1019.72,2048.99,3409.41,3335.04,3613.99,349.96,321.73,26.39,0000 0000 0000 0000 000000
2013-09-15 00:30:07,-0.01,0.10,0.00,25.72,27.80,30.33,5.95,30.38,1019.74,2048.99,3409.30,3335.03,3613.99,349.88,322.21,26.40,0000 0000 0000 0000 000000
2013-09-15 00:31:08,0.02,0.10,0.00,25.73,27.80,30.35,6.09,30.38,1019.80,2048.99,3409.13,3335.01,3613.96,350.69,322.87,26.40,0000 0000 0000 0000 000000
2013-09-15 00:32:08,0.03,0.10,0.00,25.73,27.80,30.31,5.91,30.08,1019.92,2048.99,3409.06,3335.00,3613.98,350.24,322.27,26.41,0000 0000 0000 0000 000000
2013-09-15 00:33:08,0.01,0.10,0.00,25.72,27.80,30.33,5.95,30.42,1019.93,2048.99,3409.05,3335.01,3613.99,350.26,322.30,26.41,0000 0000 0000 0000 000000
2013-09-15 00:34:08,0.00,0.10,0.00,25.70,27.80,30.34,6.01,30.42,1019.88,2048.99,3409.03,3335.01,3613.99,350.53,322.56,26.42,0000 0000 0000 0000 000000
2013-09-15 00:35:09,0.00,0.10,0.00,25.70,27.80,30.33,5.94,30.46,1019.78,2048.99,3409.03,3335.03,3613.97,350.52,322.52,26.43,0000 0000 0000 0000 000000
2013-09-15 00:36:09,-0.00,0.10,0.00,25.71,27.80,30.33,5.88,30.33,1019.77,2048.98,3409.07,3335.01,3613.99,349.95,321.97,26.43,0000 0000 0000 0000 000000
2013-09-15 00:37:09,-0.01,0.10,0.00,25.72,27.80,30.32,5.98,30.38,1019.73,2048.99,3409.13,3335.01,3613.99,350.28,322.26,26.44,0000 0000 0000 0000 000000
2013-09-15 00:38:09,-0.00,0.10,0.00,25.70,27.80,30.33,5.81,30.54,1019.72,2048.99,3409.30,3335.04,3613.98,349.39,321.46,26.44,0000 0000 0000 0000 000000
2013-09-15 00:39:10,-0.02,0.10,0.00,25.70,27.80,30.34,5.83,30.46,1019.77,2048.99,3409.29,3335.05,3613.98,349.47,321.55,26.45,0000 0000 0000 0000 000000
2013-09-15 00:40:10,0.00,0.10,0.00,25.73,27.80,30.32,5.73,30.33,1019.75,2048.99,3409.28,3335.05,3613.98,349.44,321.49,26.46,0000 0000 0000 0000 000000
2013-09-15 00:41:10,0.01,0.10,0.00,25.74,27.80,30.31,6.04,30.71,1019.72,2048.99,3409.23,3335.05,3613.99,349.92,321.59,26.46,0000 0000 0000 0000 000000
2013-09-15 00:42:10,0.00,0.10,0.00,25.74,27.80,30.30,5.93,30.63,1019.77,2048.99,3409.10,3335.03,3613.99,350.27,322.57,26.47,0000 0000 0000 0000 000000
2013-09-15 00:43:10,0.02,0.10,0.00,25.75,27.80,30.27,5.93,30.54,1019.80,2048.99,3409.06,3335.00,3613.99,350.39,322.41,26.47,0000 0000 0000 0000 000000
2013-09-15 00:44:10,0.01,0.10,0.00,25.74,27.80,30.32,6.05,30.42,1019.85,2048.99,3409.03,3335.01,3613.99,350.47,322.45,26.48,0000 0000 0000 0000 000000
2013-09-15 00:45:11,0.00,0.10,0.00,25.74,27.80,30.29,5.89,30.42,1019.84,2048.99,3409.00,3335.00,3613.97,350.20,322.20,26.49,0000 0000 0000 0000 000000
2013-09-15 00:46:11,-0.00,0.10,0.00,25.74,27.80,30.30,5.99,30.33,1019.91,2048.99,3409.03,3335.02,3613.99,350.43,322.43,26.49,0000 0000 0000 0000 000000
2013-09-15 00:47:11,-0.01,0.10,0.00,25.75,27.80,30.33,5.96,30.38,1019.84,2048.99,3409.05,3335.02,3613.99,349.88,321.90,26.50,0000 0000 0000 0000 000000
2013-09-15 00:48:11,0.00,0.10,0.00,25.76,27.80,30.34,5.94,30.29,1019.85,2048.99,3409.13,3335.02,3613.99,350.28,322.26,26.50,0000 0000 0000 0000 000000
2013-09-15 00:49:12,0.00,0.10,0.00,25.73,27.80,30.32,5.82,30.38,1019.92,2048.99,3409.11,3335.02,3613.98,349.49,321.64,26.51,0000 0000 0000 0000 000000
2013-09-15 00:50:12,0.00,0.10,0.00,25.73,27.80,30.31,5.91,30.46,1019.95,2048.99,3409.06,3335.00,3613.97,350.36,322.04,26.51,0000 0000 0000 0000 000000
2013-09-15 00:51:12,0.01,0.10,0.00,25.72,27.80,30.32,5.98,30.58,1019.93,2048.99,3409.03,3335.00,3613.98,349.87,321.74,26.52,0000 0000 0000 0000 000000
2013-09-15 00:52:13,0.00,0.10,0.00,25.73,27.80,30.28,5.81,30.38,1019.91,2048.99,3409.02,3335.01,3613.98,349.83,322.12,26.53,0000 0000 0000 0000 000000
2013-09-15 00:53:13,0.00,0.10,0.00,25.75,27.80,30.34,5.90,30.46,1019.90,2048.99,3409.03,3335.01,3613.94,349.90,321.93,26.53,0000 0000 0000 0000 000000
2013-09-15 00:54:13,0.00,0.10,0.00,25.75,27.80,30.34,5.92,30.46,1019.95,2048.99,3409.04,3335.01,3613.96,349.94,321.82,26.54,0000 0000 0000 0000 000000
2013-09-15 00:55:13,0.00,0.10,0.00,25.75,27.80,30.26,6.09,30.38,1019.99,2048.99,3409.07,3335.02,3613.98,349.55,321.28,26.54,0000 0000 0000 0000 000000
2013-09-15 00:56:14,0.00,0.10,0.00,25.75,27.80,30.35,5.97,30.42,1019.97,2048.99,3409.09,3335.03,3613.99,350.47,322.48,26.55,0000 0000 0000 0000 000000
2013-09-15 00:57:14,-0.00,0.10,0.00,25.73,27.80,30.30,6.05,30.50,1019.91,2048.99,3409.13,3335.03,3613.99,350.38,322.40,26.56,0000 0000 0000 0000 000000
2013-09-15 00:58:14,-0.00,0.10,0.00,25.73,27.80,30.31,5.88,30.42,1019.89,2048.99,3409.08,3335.02,3613.99,350.18,322.53,26.56,0000 0000 0000 0000 000000
2013-09-15 00:59:14,0.01,0.10,0.00,25.73,27.80,30.31,5.92,30.50,1019.84,2048.99,3409.06,3335.00,3613.99,351.05,322.99,26.57,0000 0000 0000 0000 000000
2013-09-15 01:00:15,0.00,0.10,0.00,25.72,27.79,30.30,5.99,30.46,1019.84,2048.99,3409.05,3335.01,3613.98,349.90,321.94,26.57,0000 0000 0000 0000 000000
2013-09-15 01:01:15,0.00,0.10,0.00,25.70,27.79,30.28,5.97,30.46,1019.72,2048.99,3409.04,3335.00,3613.98,350.86,322.81,26.58,0000 0000 0000 0000 000000
2013-09-15 01:02:15,0.00,0.10,0.00,25.73,27.79,30.33,5.77,30.46,1019.68,2048.99,3409.02,3335.00,3613.97,349.61,321.61,26.58,0000 0000 0000 0000 000000
2013-09-15 01:03:15,0.00,0.10,0.00,25.73,27.79,30.28,5.91,30.38,1019.65,2048.99,3409.01,3335.00,3613.98,350.04,321.99,26.59,0000 0000 0000 0000 000000
2013-09-15 01:04:16,0.00,0.10,0.00,25.75,27.79,30.31,5.92,30.58,1019.76,2048.99,3409.01,3335.00,3613.97,349.84,321.91,26.60,0000 0000 0000 0000 000000
2013-09-15 01:05:16,0.00,0.10,0.00,25.72,27.78,30.32,5.77,30.46,1019.73,2048.99,3409.01,3335.00,3613.96,349.12,320.78,26.60,0000 0000 0000 0000 000000
2013-09-15 01:06:16,0.00,0.10,0.00,25.72,27.78,30.31,5.87,30.50,1019.69,2048.99,3409.02,3335.00,3613.95,350.33,322.43,26.61,0000 0000 0000 0000 000000
2013-09-15 01:07:17,0.00,0.10,0.00,25.72,27.78,30.27,5.84,30.38,1019.70,2048.99,3409.01,3335.00,3613.97,349.75,322.09,26.61,0000 0000 0000 0000 000000
2013-09-15 01:08:17,0.00,0.10,0.00,25.71,27.78,30.30,5.98,30.38,1019.68,2048.99,3409.01,3335.00,3613.98,350.33,321.89,26.62,0000 0000 0000 0000 000000
2013-09-15 01:09:17,0.00,0.10,0.00,25.72,27.78,30.32,5.88,30.21,1019.68,2048.99,3409.02,3335.02,3613.98,349.08,321.49,26.63,0000 0000 0000 0000 000000
2013-09-15 01:10:17,0.00,0.10,0.00,25.74,27.78,30.33,5.91,30.46,1019.65,2048.99,3409.02,3335.00,3613.93,349.41,321.68,26.63,0000 0000 0000 0000 000000
2013-09-15 01:11:18,0.00,0.10,0.00,25.73,27.77,30.31,5.91,30.46,1019.62,2048.99,3409.01,3335.00,3613.89,350.10,322.36,26.64,0000 0000 0000 0000 000000
2013-09-15 01:12:18,0.00,0.10,0.00,25.73,27.77,30.30,6.08,30.38,1019.59,2048.99,3409.00,3335.00,3613.85,351.41,322.97,26.64,0000 0000 0000 0000 000000
2013-09-15 01:13:18,-0.00,0.10,0.00,25.73,27.77,30.26,5.91,30.50,1019.67,2048.99,3409.01,3335.01,3613.93,349.38,321.82,26.65,0000 0000 0000 0000 000000
2013-09-15 01:14:18,-0.01,0.10,0.00,25.73,27.77,30.33,5.88,30.29,1019.68,2048.99,3409.00,3335.01,3613.95,350.37,322.31,26.66,0000 0000 0000 0000 000000
2013-09-15 01:15:19,0.00,0.10,0.00,25.75,27.77,30.28,5.97,30.25,1019.62,2048.99,3409.00,3335.00,3613.95,350.04,321.97,26.66,0000 0000 0000 0000 000000
2013-09-15 01:16:19,0.00,0.10,0.00,25.74,27.77,30.28,6.01,30.46,1019.67,2048.99,3409.00,3335.00,3613.94,350.09,322.04,26.67,0000 0000 0000 0000 000000
2013-09-15 01:17:19,0.00,0.10,0.00,25.74,27.77,30.31,5.88,30.46,1019.73,2048.99,3409.00,3335.00,3613.79,349.82,321.54,26.67,0000 0000 0000 0000 000000
2013-09-15 01:18:20,0.01,0.10,0.00,25.72,27.77,30.33,5.99,30.50,1019.80,2048.99,3409.00,3335.00,3613.62,350.20,322.19,26.68,0000 0000 0000 0000 000000
2013-09-15 01:19:20,0.01,0.10,0.00,25.72,27.77,30.31,5.99,30.29,1019.80,2048.99,3409.00,3335.00,3613.66,350.37,322.39,26.68,0000 0000 0000 0000 000000
2013-09-15 01:20:20,0.00,0.10,0.00,25.74,27.77,30.29,5.93,30.21,1019.75,2048.99,3409.00,3335.00,3613.69,349.84,322.03,26.69,0000 0000 0000 0000 000000
2013-09-15 01:21:20,0.00,0.10,0.00,25.73,27.77,30.30,5.93,30.54,1019.80,2048.99,3408.98,3335.00,3613.69,349.23,321.39,26.70,0000 0000 0000 0000 000000
2013-09-15 01:22:21,0.00,0.10,0.00,25.73,27.77,30.31,6.02,30.42,1019.84,2048.99,3408.98,3335.00,3613.73,350.39,321.97,26.70,0000 0000 0000 0000 000000
2013-09-15 01:23:21,0.00,0.10,0.00,25.74,27.77,30.30,5.95,30.50,1019.77,2048.99,3408.98,3335.00,3613.60,350.24,322.21,26.71,0000 0000 0000 0000 000000
2013-09-15 01:24:21,0.00,0.10,0.00,25.75,27.77,30.34,6.03,30.46,1019.72,2048.99,3408.99,3335.00,3613.58,350.26,322.20,26.71,0000 0000 0000 0000 000000
2013-09-15 01:25:21,-0.01,0.10,0.00,25.75,27.77,30.36,5.89,30.54,1019.78,2048.99,3408.99,3335.00,3613.75,349.46,321.32,26.72,0000 0000 0000 0000 000000
2013-09-15 01:26:22,-0.01,0.10,0.00,25.75,27.77,30.33,5.77,30.50,1019.72,2048.99,3408.99,3335.00,3613.82,349.43,321.45,26.73,0000 0000 0000 0000 000000
2013-09-15 01:27:22,0.00,0.10,0.00,25.73,27.77,30.30,5.77,30.42,1019.74,2048.99,3408.99,3335.00,3613.81,349.70,321.67,26.73,0000 0000 0000 0000 000000
2013-09-15 01:28:22,0.00,0.10,0.00,25.73,27.77,30.30,5.77,30.33,1019.69,2048.99,3408.99,3335.00,3613.66,350.18,322.00,26.74,0000 0000 0000 0000 000000
2013-09-15 01:29:22,0.01,0.10,0.00,25.73,27.77,30.29,6.08,30.50,1019.61,2048.99,3408.99,3335.00,3613.58,351.04,322.58,26.74,0000 0000 0000 0000 000000
2013-09-15 01:30:23,0.01,0.10,0.00,25.74,27.77,30.28,6.14,30.50,1019.65,2048.99,3408.99,3335.00,3613.45,350.13,322.06,26.75,0000 0000 0000 0000 000000
2013-09-15 01:31:23,0.01,0.10,0.00,25.73,27.77,30.35,6.04,30.46,1019.72,2048.99,3408.99,3335.00,3613.26,350.08,322.01,26.75,0000 0000 0000 0000 000000
2013-09-15 01:32:23,0.02,0.10,0.00,25.72,27.77,30.29,5.91,30.33,1019.72,2048.99,3408.99,3335.00,3613.33,349.69,321.71,26.76,0000 0000 0000 0000 000000
2013-09-15 01:33:23,0.00,0.10,0.00,25.74,27.77,30.33,5.86,30.58,1019.70,2048.99,3408.99,3335.00,3613.44,350.44,322.36,26.77,0000 0000 0000 0000 000000
2013-09-15 01:34:24,-0.01,0.10,0.00,25.73,27.77,30.30,6.09,30.46,1019.74,2048.99,3409.00,3335.01,3613.74,350.49,322.43,26.77,0000 0000 0000 0000 000000
2013-09-15 01:35:24,-0.02,0.10,0.00,25.73,27.77,30.35,5.94,30.38,1019.85,2048.99,3409.00,3335.02,3613.84,349.63,321.69,26.78,0000 0000 0000 0000 000000
2013-09-15 01:36:24,-0.01,0.10,0.00,25.72,27.77,30.30,5.78,30.42,1019.87,2048.99,3409.00,3335.00,3613.74,350.23,322.04,26.78,0000 0000 0000 0000 000000
2013-09-15 01:37:25,0.00,0.10,0.00,25.71,27.77,30.29,5.99,30.50,1019.90,2048.99,3409.00,3335.01,3613.80,350.46,322.49,26.79,0000 0000 0000 0000 000000
2013-09-15 01:38:25,0.00,0.10,0.00,25.70,27.77,30.33,6.00,30.54,1019.96,2048.99,3409.00,3335.00,3613.80,350.27,322.34,26.80,0000 0000 0000 0000 000000
2013-09-15 01:39:25,0.00,0.10,0.00,25.73,27.77,30.33,5.92,30.46,1019.92,2048.99,3409.00,3335.00,3613.81,351.00,322.63,26.80,0000 0000 0000 0000 000000
2013-09-15 01:40:25,0.00,0.10,0.00,25.72,27.77,30.30,6.03,30.33,1019.81,2048.99,3409.00,3335.00,3613.71,349.98,322.01,26.81,0000 0000 0000 0000 000000
2013-09-15 01:41:26,0.01,0.10,0.00,25.73,27.77,30.31,5.83,30.50,1019.78,2048.99,3409.00,3335.00,3613.53,349.61,321.64,26.81,0000 0000 0000 0000 000000
2013-09-15 01:42:26,0.02,0.10,0.00,25.73,27.77,30.25,5.77,30.63,1019.65,2048.99,3408.99,3334.99,3613.29,349.36,320.98,26.82,0000 0000 0000 0000 000000
2013-09-15 01:43:26,0.01,0.10,0.00,25.72,27.77,30.27,5.99,30.54,1019.69,2048.99,3408.97,3334.99,3613.32,350.38,322.37,26.83,0000 0000 0000 0000 000000
2013-09-15 01:44:27,0.00,0.10,0.00,25.71,27.77,30.28,5.84,30.42,1019.71,2048.99,3408.99,3334.99,3613.24,350.10,322.16,26.83,0000 0000 0000 0000 000000
2013-09-15 01:45:27,0.00,0.10,0.00,25.72,27.77,30.28,5.90,30.25,1019.72,2048.99,3408.98,3334.99,3613.24,350.42,322.72,26.84,0000 0000 0000 0000 000000
2013-09-15 01:46:27,-0.01,0.10,0.00,25.72,27.77,30.23,6.02,30.54,1019.66,2048.99,3408.98,3334.99,3613.45,350.51,322.12,26.84,0000 0000 0000 0000 000000
2013-09-15 01:47:27,-0.01,0.10,0.00,25.73,27.77,30.26,6.08,30.58,1019.67,2048.99,3408.99,3334.99,3613.49,350.45,322.68,26.85,0000 0000 0000 0000 000000
2013-09-15 01:48:28,-0.01,0.10,0.00,25.73,27.77,30.31,6.00,30.46,1019.71,2048.99,3408.99,3334.99,3613.60,350.67,322.78,26.85,0000 0000 0000 0000 000000
2013-09-15 01:49:28,-0.01,0.10,0.00,25.73,27.77,30.29,5.90,30.54,1019.77,2048.99,3408.99,3334.99,3613.69,350.22,322.08,26.86,0000 0000 0000 0000 000000
2013-09-15 01:50:28,0.00,0.10,0.00,25.74,27.77,30.32,5.77,30.46,1019.79,2048.99,3408.99,3334.99,3613.69,349.48,321.48,26.87,0000 0000 0000 0000 000000
2013-09-15 01:51:28,0.01,0.10,0.00,25.74,27.77,30.29,5.97,30.38,1019.80,2049.00,3408.98,3334.99,3613.60,349.77,321.76,26.87,0000 0000 0000 0000 000000
2013-09-15 01:52:29,0.02,0.10,0.00,25.72,27.77,30.33,5.83,30.46,1019.85,2049.00,3408.99,3334.99,3613.51,349.56,321.63,26.88,0000 0000 0000 0000 000000
2013-09-15 01:53:29,0.01,0.10,0.00,25.72,27.77,30.32,5.88,30.58,1019.92,2049.01,3408.97,3334.99,3613.46,349.52,321.61,26.88,0000 0000 0000 0000 000000
2013-09-15 01:54:29,0.01,0.10,0.00,25.71,27.77,30.27,6.02,30.54,1019.94,2049.00,3408.97,3334.99,3613.42,349.82,321.67,26.89,0000 0000 0000 0000 000000
2013-09-15 01:55:29,-0.01,0.10,0.00,25.71,27.77,30.28,5.98,30.50,1019.83,2049.00,3408.98,3334.99,3613.52,350.22,322.25,26.90,0000 0000 0000 0000 000000
2013-09-15 01:56:30,-0.01,0.10,0.00,25.71,27.77,30.29,5.84,30.42,1019.85,2049.00,3408.99,3334.99,3613.50,349.51,321.59,26.90,0000 0000 0000 0000 000000
2013-09-15 01:57:30,0.01,0.10,0.00,25.73,27.77,30.31,5.98,30.50,1019.84,2049.00,3408.96,3334.99,3613.33,350.06,322.17,26.91,0000 0000 0000 0000 000000
2013-09-15 01:58:30,0.01,0.10,0.00,25.75,27.76,30.29,5.97,30.29,1019.91,2049.00,3408.96,3334.99,3613.26,350.54,322.52,26.91,0000 0000 0000 0000 000000
2013-09-15 01:59:31,0.01,0.10,0.00,25.72,27.77,30.25,6.06,30.46,1019.88,2049.00,3408.96,3334.99,3613.22,350.77,322.60,26.92,0000 0000 0000 0000 000000
2013-09-15 02:00:31,0.01,0.10,0.00,25.72,27.77,30.25,5.80,30.54,1019.95,2049.00,3408.92,3334.99,3613.22,349.65,321.75,26.92,0000 0000 0000 0000 000000
2013-09-15 02:01:31,0.00,0.10,0.00,25.73,27.76,30.25,5.87,30.46,1019.91,2049.00,3408.93,3334.99,3613.30,349.82,321.66,26.93,0000 0000 0000 0000 000000
2013-09-15 02:02:31,0.00,0.10,0.00,25.73,27.76,30.31,5.84,30.58,1019.82,2049.00,3408.96,3334.99,3613.36,350.29,322.28,26.94,0000 0000 0000 0000 000000
2013-09-15 02:03:32,-0.01,0.10,0.00,25.73,27.76,30.25,5.83,30.33,1019.89,2049.00,3408.98,3334.99,3613.56,350.13,322.15,26.94,0000 0000 0000 0000 000000
2013-09-15 02:04:32,-0.02,0.10,0.00,25.75,27.76,30.25,5.91,30.54,1019.91,2049.01,3408.96,3334.99,3613.69,350.08,322.10,26.95,0000 0000 0000 0000 000000
2013-09-15 02:05:32,-0.00,0.10,0.00,25.73,27.76,30.26,5.92,30.42,1019.96,2049.00,3408.97,3334.99,3613.44,349.73,322.12,26.95,0000 0000 0000 0000 000000
2013-09-15 02:06:32,0.03,0.10,0.00,25.72,27.76,30.31,5.88,30.46,1019.98,2049.01,3408.94,3334.99,3613.30,350.24,322.29,26.96,0000 0000 0000 0000 000000
2013-09-15 02:07:32,0.02,0.10,0.00,25.71,27.75,30.28,5.79,30.50,1019.96,2049.01,3408.88,3334.99,3613.27,348.85,321.03,26.97,0000 0000 0000 0000 000000
2013-09-15 02:08:33,0.01,0.10,0.00,25.72,27.75,30.29,5.82,30.38,1019.98,2049.02,3408.91,3334.99,3613.33,349.69,322.10,26.97,0000 0000 0000 0000 000000
2013-09-15 02:09:33,0.00,0.10,0.00,25.73,27.75,30.27,5.80,30.38,1019.94,2049.02,3408.93,3334.99,3613.24,350.44,322.07,26.98,0000 0000 0000 0000 000000
2013-09-15 02:10:33,-0.01,0.10,0.00,25.74,27.75,30.27,5.93,30.63,1019.98,2049.01,3408.90,3334.99,3613.20,349.80,321.88,26.98,0000 0000 0000 0000 000000
2013-09-15 02:11:34,0.00,0.10,0.00,25.72,27.75,30.29,5.97,30.54,1019.97,2049.00,3408.86,3334.99,3613.11,350.94,322.94,26.99,0000 0000 0000 0000 000000
2013-09-15 02:12:34,0.01,0.10,0.00,25.73,27.75,30.30,5.92,30.42,1019.99,2049.00,3408.88,3334.99,3613.08,350.89,322.80,27.00,0000 0000 0000 0000 000000
2013-09-15 02:13:34,0.00,0.10,0.00,25.73,27.75,30.29,6.00,30.38,1019.99,2049.01,3408.89,3334.99,3613.08,350.40,322.44,27.00,0000 0000 0000 0000 000000
2013-09-15 02:14:35,-0.01,0.10,0.00,25.72,27.76,30.30,5.94,30.38,1019.97,2049.01,3408.93,3334.99,3613.07,349.90,321.98,27.01,0000 0000 0000 0000 000000
2013-09-15 02:15:35,-0.00,0.10,0.00,25.72,27.75,30.32,5.81,30.46,1019.98,2049.01,3408.94,3334.99,3613.08,349.47,321.60,27.01,0000 0000 0000 0000 000000
2013-09-15 02:16:35,0.00,0.10,0.00,25.73,27.75,30.29,5.98,30.50,1019.98,2049.01,3408.88,3334.99,3613.08,350.33,322.68,27.02,0000 0000 0000 0000 000000
2013-09-15 02:17:36,0.01,0.10,0.00,25.72,27.75,30.32,5.87,30.38,1019.99,2049.01,3408.92,3334.99,3613.06,349.66,321.77,27.02,0000 0000 0000 0000 000000
2013-09-15 02:18:36,-0.00,0.10,0.00,25.73,27.75,30.27,5.94,30.58,1020.01,2049.00,3408.94,3334.99,3613.13,350.45,322.49,27.03,0000 0000 0000 0000 000000
2013-09-15 02:19:36,-0.01,0.10,0.00,25.73,27.75,30.27,5.96,30.54,1020.00,2049.00,3408.91,3334.99,3613.17,350.39,322.20,27.04,0000 0000 0000 0000 000000
2013-09-15 02:20:36,-0.00,0.10,0.00,25.73,27.75,30.30,6.03,30.54,1020.02,2049.00,3408.92,3334.99,3613.13,350.66,322.69,27.04,0000 0000 0000 0000 000000
2013-09-15 02:21:37,0.00,0.10,0.00,25.73,27.75,30.27,5.87,30.67,1020.02,2049.00,3408.93,3334.98,3613.16,349.64,321.75,27.05,0000 0000 0000 0000 000000
2013-09-15 02:22:37,0.00,0.10,0.00,25.74,27.75,30.29,5.90,30.46,1019.99,2049.01,3408.90,3334.99,3613.14,349.87,322.25,27.05,0000 0000 0000 0000 000000
2013-09-15 02:23:37,0.02,0.10,0.00,25.72,27.75,30.26,6.10,30.54,1020.01,2049.02,3408.91,3334.99,3613.19,350.21,322.19,27.06,0000 0000 0000 0000 000000
2013-09-15 02:24:37,-0.01,0.10,0.00,25.73,27.75,30.29,5.92,30.46,1020.01,2049.03,3408.95,3334.99,3613.30,349.60,321.71,27.07,0000 0000 0000 0000 000000
2013-09-15 02:25:38,-0.00,0.10,0.00,25.73,27.75,30.28,5.98,30.50,1019.98,2049.01,3408.79,3334.99,3613.15,350.35,322.53,27.07,0000 0000 0000 0000 000000
2013-09-15 02:26:38,0.02,0.10,0.00,25.74,27.75,30.25,5.76,30.58,1019.95,2049.00,3408.81,3334.99,3613.08,350.18,322.02,27.08,0000 0000 0000 0000 000000
2013-09-15 02:27:38,-0.00,0.10,0.00,25.74,27.75,30.33,5.88,30.46,1019.97,2049.00,3408.88,3334.99,3613.08,349.83,321.91,27.08,0000 0000 0000 0000 000000
2013-09-15 02:28:38,-0.00,0.10,0.00,25.74,27.75,30.30,6.00,30.46,1019.99,2049.02,3408.91,3334.99,3613.08,350.35,322.38,27.09,0000 0000 0000 0000 000000
2013-09-15 02:29:39,0.00,0.10,0.00,25.74,27.75,30.26,5.78,30.50,1020.03,2049.01,3408.93,3334.99,3613.07,348.90,321.06,27.09,0000 0000 0000 0000 000000
2013-09-15 02:30:39,-0.01,0.10,0.00,25.72,27.75,30.29,5.71,30.50,1020.02,2049.00,3408.91,3334.99,3613.06,348.78,321.23,27.10,0000 0000 0000 0000 000000
2013-09-15 02:31:39,-0.00,0.10,0.00,25.74,27.75,30.24,5.97,30.50,1020.02,2049.00,3408.96,3334.99,3613.04,349.66,321.76,27.11,0000 0000 0000 0000 000000
2013-09-15 02:32:40,0.00,0.10,0.00,25.74,27.75,30.28,5.87,30.50,1020.02,2049.00,3408.98,3334.99,3613.03,349.94,322.01,27.11,0000 0000 0000 0000 000000
2013-09-15 02:33:40,0.00,0.10,0.00,25.75,27.75,30.30,5.80,30.38,1020.03,2049.01,3408.97,3334.99,3613.05,349.39,321.69,27.12,0000 0000 0000 0000 000000
2013-09-15 02:34:40,0.00,0.10,0.00,25.73,27.75,30.26,5.95,30.33,1020.02,2049.01,3408.96,3334.99,3613.07,350.34,322.54,27.12,0000 0000 0000 0000 000000
2013-09-15 02:35:41,-0.01,0.10,0.00,25.72,27.75,30.29,5.93,30.21,1020.03,2049.05,3408.95,3334.99,3613.08,349.94,322.56,27.13,0000 0000 0000 0000 000000